{"data":{"norad_id":54671,"intl_designator":"2022-166AF","name":"ONEWEB-0607","alt_names":[],"object_type":"PAYLOAD","status":"ACTIVE","operator":null,"country":"UK","launch_date":"2022-12-08","launch_site_code":"AFETR","launch_vehicle":null,"mission":null,"orbit_class":"UNKNOWN","rcs_meters":null,"size_class":null,"mass_kg":null,"dimensions":null,"purposes":["comms"],"wikipedia_slug":null,"has_3d_model":false,"image_url":null,"decayed_at":null,"tle_current":{"epoch":"2026-05-25T00:55:49.173312Z","epoch_age_seconds":61841,"freshness":"FRESH","line1":"1 54671U 22166AF  26145.03876358  .00000013  00000+0 -10440-6 0  9997","line2":"2 54671  87.9259 248.5746 0002038  95.8991 264.2375 13.21827425168486","mean_motion":13.21827425,"eccentricity":0.0002038,"inclination_deg":87.9259,"raan_deg":248.5746,"arg_perigee_deg":95.8991,"mean_anomaly_deg":264.2375,"bstar":-1.044e-7,"rev_number":16848,"period_min":108.94009102588,"perigee_km":1176.2080485831,"apogee_km":1179.2878272838,"semimajor_km":7555.8849379335,"source":"CELESTRAK","updated_at":"2026-05-25T13:38:22.636200Z"}}}